Miscellaneous Local Product
Issued by NWS North Platte, NE

Home | Current Version | Previous Version | Graphics & Text | Print | Product List | Glossary On
Versions: 1 2 3 4 5 6 7 8 9 10 11 12 13 14 15 16 17 18 19 20 21 22 23 24 25 26 27 28 29 30 31 32 33 34 35 36 37 38 39 40 41 42 43 44 45 46 47 48 49 50
000
AXUS43 KLBF 241010
MISLBF


WESTERN AND NORTH CENTRAL NEBRASKA HOURLY WEATHER ROUNDUP
NATIONAL WEATHER SERVICE NORTH PLATTE NE
500 AM CDT SUN MAY 24 2015

***STATIONS NOT REPORTING VARIABLES SUCH AS SKY/WEATHER OR
PRESSURE ARE PROVIDED BY THE NEBRASKA DEPARTMENT OF
ROADS...RAWS...AND APRS NETWORKS...AND ARE NOT UNDER
NATIONAL WEATHER SERVICE QUALITY CONTROL***

...OBSERVATIONS IN AND NEAR THE EASTERN PANHANDLE OF NEBRASKA...

CITY           SKY/WX    TMP DP  RH WIND       PRES   REMARKS
PINE RIDGE     CLOUDY    53  50  89 E12       29.92F
CHADRON        CLOUDY    53  51  93 E7        29.91F
ALLIANCE       RAIN      50  50 100 SE6       29.90F FOG
SIDNEY         CLOUDY    50  49  96 CALM      29.90F
WHITECLAY        N/A     51  50  95 E8          N/A
BIG SPRINGS      N/A     55  54  96 SE8         N/A
$$

...OBSERVATIONS IN NORTH CENTRAL NEBRASKA...

CITY           SKY/WX    TMP DP  RH WIND       PRES   REMARKS
VALENTINE      CLOUDY    54  53  97 E9        29.94F FOG
THEDFORD       CLOUDY    56  55  98 E6        29.93R FOG
AINSWORTH      FOG       55  55 100 E7        29.94S VSB 1/4
O`NEILL        FOG       57  57  99 NE7       29.93F VSB 1/4
ORD            CLOUDY    57  56  96 SE3       29.91R FOG
BROKEN BOW     CLOUDY    58  57  97 E6        29.90S FOG
VALENTINE NWR    N/A     53  53  99 E9          N/A
SPRINGVIEW       N/A     55  54  96 CALM        N/A
ROSE             N/A     58  57  99 NE7         N/A
SARGENT          N/A     57  56  98 CALM        N/A
COMSTOCK         N/A     61  61  99 E6          N/A
EWING            N/A     58  57  97 E6          N/A
$$

...OBSERVATIONS IN SOUTHWEST NEBRASKA AND FAR NORTHEAST COLORADO...

CITY           SKY/WX    TMP DP  RH WIND       PRES   REMARKS
WRAY           RAIN     N/A N/A N/A NE9       29.85F
IMPERIAL       CLOUDY    55  53  93 S13       29.89F
OGALLALA       CLOUDY    55  54  99 S6        29.89F
NORTH PLATTE   CLOUDY    56  54  93 SE6       29.90F
MCCOOK         CLOUDY    57  55  93 SE3       29.89F
LEXINGTON      CLOUDY    59  58  97 SE3       29.90S FOG
PAXTON           N/A     55  54  97 SE6         N/A
GOTHENBURG       N/A     57  55  92 S3          N/A
CALLAWAY         N/A     56  56  99 SE6         N/A
$$

...NORTH PLATTE AREA...

CITY           SKY/WX    TMP DP  RH WIND       PRES   REMARKS
AIRPORT        CLOUDY    56  54  93 SE6       29.90F
DOWNTOWN         N/A     55  54  97 E3          N/A
$$

...SOME WEATHER OBSERVATIONS FROM AROUND THE REGION...

CITY           SKY/WX    TMP DP  RH WIND       PRES   REMARKS
DENVER         PTCLDY    41  39  93 SW7       29.92F
LARAMIE        CLOUDY    37  32  82 NE6       29.95F WCI  32
CHEYENNE       MOCLDY    39  37  92 CALM      29.92F FOG
SCOTTSBLUFF    CLOUDY    52  51  97 CALM      29.90F
RAPID CITY     LGT RAIN  53  52  96 E10       29.97F
PIERRE         CLOUDY    54  53  97 NE7       29.98F
WINNER         CLOUDY    56  53  90 E10       29.96F FOG
SIOUX FALLS    DRIZZLE   58  57  97 E7        29.98F
OMAHA          CLOUDY    61  59  93 E12       29.90F
GRAND ISLAND   LGT RAIN  59  58  96 E6        29.91R FOG
KANSAS CITY    LGT RAIN  61  60  97 SE10      29.88S FOG
WICHITA        CLOUDY    60  58  92 E9        29.85F
HAYS           CLOUDY    57  50  77 CALM      29.88S VSB 1/2
LIBERAL        CLOUDY    59  54  82 SW8       29.92R
GOODLAND       CLOUDY    52  51  97 S7        29.89F
$$



USA.gov is the U.S. government's official web portal to all federal, state and local government web resources and services.